Location: Krakow
(50.0830°N, 19.9170°E)
Time: 19:47:19
(UTC+01:00)

SR - Visible Passes

Search period start: 30 January 2023 00:00
Search period end: 09 February 2023 00:00
Orbit: 581 x 870 km, 66.7° (Epoch: 30 January)

Date Brightness Start Highest point End Pass type
(mag) Time Alt. Az. Time Alt. Az. Time Alt. Az.
30 Jan ? 17:21:10 10° W 17:25:02 22° NW 17:28:41 10° NNE visible
30 Jan ? 19:08:03 10° NNW 19:08:45 10° N 19:09:25 10° N visible
31 Jan ? 18:15:33 10° NW 18:17:34 12° NNW 18:19:32 10° N visible
01 Feb ? 17:23:25 10° WNW 17:26:30 16° NNW 17:29:26 10° NNE visible
02 Feb ? 18:18:23 10° NNW 18:19:13 10° N 18:20:02 10° N visible
03 Feb ? 17:25:55 10° NW 17:28:03 13° NNW 17:30:08 10° N visible
05 Feb ? 17:28:43 10° NNW 17:29:41 11° NNW 17:30:39 10° N visible
05 Feb ? 19:12:24 10° N 19:13:07 11° N 19:13:07 11° N visible
06 Feb ? 20:03:10 10° NNW 20:03:22 11° NNW 20:03:22 11° NNW visible
07 Feb ? 19:13:03 10° N 19:14:17 13° N 19:14:17 13° N visible
08 Feb ? 18:23:07 10° N 18:24:15 11° NNE 18:25:14 10° NNE visible
08 Feb ? 20:03:58 10° NNW 20:04:35 13° NNW 20:04:35 13° NNW visible
